#timestamp,LO_Frequency,Hit,StdDev 
1597215615.2,286047000.8,N
1597215635.1,286046998.2,N
1597215636.0,286046998.2,N
1597215655.8,286047000.9,N
1597215675.6,286047001.2,N
1597215695.5,286047001.1,N
1597215715.3,286047000.8,N
1597215735.1,286047000.4,N
1597215755.9,286047000.6,N
1597215775.7,286047001.1,N
1597215795.6,286047000.7,N
1597215815.4,286047001.1,N
1597215835.2,286047000.9,N
1597215855.1,286047000.1,N
1597215856.0,286047000.1,N
1597215875.8,286047000.7,N
1597215895.7,286047000.7,N
1597215915.5,286047000.4,N
1597215935.3,286047000.4,N
1597215955.2,286047000.4,N
1597215975.0,286047000.8,N
1597215975.9,286047000.8,N
1597215995.7,286047000.9,N
1597216015.6,286046998.5,N
1597216035.4,286046998.5,N
1597216055.3,286046998.1,N
1597216075.1,286046998.2,N
1597216076.0,286046998.2,N
1597216095.8,286047001.1,N
1597216115.7,286047001.0,N
1597216135.5,286046998.2,N
1597216155.3,286047001.1,N
1597216175.2,286047000.7,N
1597216195.0,286047000.3,N
1597216195.9,286047000.3,N
1597216215.8,286047000.8,N
1597216235.6,286047000.7,N
1597216255.4,286047000.1,N
1597216275.3,286047000.2,N
1597216295.1,286047001.0,N
1597216315.8,286047002.8,N
1597216335.7,286046999.8,N
1597216355.5,286047000.1,N
1597216375.4,286046999.8,N
1597216395.2,286047002.8,N
1597216415.0,286047002.4,N
1597216415.9,286047002.4,N
1597216435.8,286046999.7,N
1597216455.6,286047000.9,N
1597216475.4,286047001.2,N
1597216495.3,286047000.7,N
1597216515.1,286046998.4,N
1597216535.9,286046998.3,N
1597216555.7,286047001.0,N
1597216575.5,286047000.8,N
1597216595.4,286047000.9,N
1597216615.2,286047002.7,N
1597216635.0,286047000.3,N
1597216636.0,286047000.3,N
1597216655.8,286047000.0,N
1597216675.6,286047000.3,N
1597216695.5,286047000.1,N
1597216715.3,286047000.4,N
1597216735.2,286047000.6,N
1597216755.9,286047000.6,N
1597216775.7,286047000.2,N
1597216795.6,286047000.3,N
1597216815.4,286047001.1,N
1597216835.2,286046998.6,N
1597216855.1,286046998.3,N
1597216856.0,286046998.3,N
1597216875.8,286046999.0,N
1597216895.7,286046999.0,N
1597216915.5,286046998.6,N
1597216935.3,286046998.6,N
1597216955.2,286046998.2,N
1597216975.0,286046998.6,N
1597216975.9,286046998.6,N
1597216995.7,286046998.8,N
1597217015.6,286046999.0,N
1597217035.4,286046997.0,N
1597217055.3,286046997.5,N
1597217075.1,286046995.1,Y
1597217076.0,286046995.1,P
1597217095.8,286046997.7,N
1597217115.7,286046996.8,N
1597217135.5,286046997.2,N
1597217155.3,286046997.8,N
1597217175.2,286046995.1,Y
1597217195.0,286046998.8,P
1597217195.9,286046998.8,N
1597217215.8,286046998.9,N
1597217235.6,286046998.2,N
1597217255.4,286046999.3,N
1597217275.3,286046998.9,N
1597217295.1,286046999.5,N
1597217315.9,286046999.5,N
1597217335.7,286046996.5,Y
1597217355.5,286046999.1,P
1597217375.4,286046996.8,P
1597217395.2,286046997.1,N
1597217415.0,286046996.9,Y
1597217415.9,286046996.9,P
1597217435.8,286047001.2,N
1597217455.6,286047000.7,N
1597217475.5,286046998.3,N
1597217495.3,286047001.2,N
1597217515.1,286046998.3,N
1597217535.9,286046996.9,N
1597217555.7,286046996.9,N
1597217575.5,286046999.5,N
1597217595.4,286046996.7,N
1597217615.2,286046998.9,N
1597217635.1,286046999.6,N
1597217636.0,286046999.6,N
1597217655.8,286046996.5,N
1597217675.6,286046999.2,N
1597217695.5,286046999.6,N
1597217715.3,286046996.7,N
1597217735.1,286046997.0,N
1597217755.9,286046999.5,N
1597217775.7,286046996.7,N
1597217795.6,286046997.9,N
1597217815.4,286046994.9,Y
1597217835.2,286046998.4,P
1597217855.1,286046998.1,P
1597217856.0,286046998.1,P
1597217875.8,286046999.1,Y
1597217895.6,286047001.0,P
1597217915.5,286047001.2,N
1597217935.3,286047001.2,N
1597217955.2,286047000.3,N
1597217975.9,286047002.3,N
1597217995.7,286047002.3,N
1597218015.6,286047002.4,N
1597218035.4,286047000.0,N
1597218055.3,286047001.1,N
1597218075.1,286047000.7,N
1597218076.0,286047000.7,N
1597218095.8,286046999.9,N
1597218115.7,286047002.4,N
1597218135.5,286047002.7,N
1597218155.3,286047002.8,N
1597218175.2,286046999.7,N
1597218195.0,286047000.1,N
1597218195.9,286047000.1,N
1597218215.8,286047002.0,N
1597218235.6,286047000.2,N
1597218255.4,286047000.2,N
1597218275.3,286047000.2,N
1597218295.1,286047001.2,N
1597218315.9,286047000.3,N
1597218335.7,286047000.4,N
1597218355.5,286047001.1,N
1597218375.4,286046998.1,N
1597218395.2,286046998.1,N
1597218415.0,286047000.2,N
1597218415.9,286047000.2,N
1597218435.8,286047000.2,N
1597218455.6,286047000.2,N
1597218475.5,286047002.2,N
1597218495.3,286047002.5,N
1597218515.1,286047002.3,N
1597218535.9,286047002.5,N
1597218555.7,286047002.6,N
1597218575.6,286047002.0,N
1597218595.4,286047002.4,N
1597218615.2,286047002.6,N
1597218635.1,286047002.5,N
1597218636.0,286047002.5,N
1597218655.8,286047002.2,N
1597218675.6,286047002.6,N
1597218695.5,286047001.9,N
1597218715.3,286047002.7,N
1597218735.2,286047002.7,N
1597218755.9,286047001.5,N
1597218775.7,286047002.3,N
1597218795.6,286047001.5,N
1597218815.4,286047004.2,Y
1597218835.2,286047002.5,P
1597218855.1,286047002.5,P
1597218856.0,286047002.5,P
1597218875.8,286047002.6,Y
1597218895.7,286047000.9,P
1597218915.5,286047000.4,N
1597218935.3,286047000.7,N
1597218955.2,286047000.7,N
1597218975.0,286047000.5,N
1597218975.9,286047000.5,N
1597218995.8,286047000.1,N
1597219015.6,286046999.9,N
1597219035.4,286047000.2,N
1597219055.3,286046999.8,N
1597219075.1,286047000.2,N
1597219095.8,286047002.8,Y
1597219115.7,286047001.1,P
1597219135.5,286047000.9,N
1597219155.4,286047000.1,N
1597219175.2,286047000.0,N
1597219195.0,286047000.2,N
1597219195.9,286047000.2,N
